Probability
2 2 1 3 4 5 6 6 6 5 4 3 3 3 3 3 3 4 5 5 5 6 7 9 9 10 10 9 7 7 8 8 7 9 9 8 9 10 9 7 6 4 3
1 1 2 4 5 6 6 5 4 4 3 3 3 3 3 3 3 3 4 4 4 4 5 6 6 6 6 6 5 5 7 8 8 9 9 9 9 9 9 7 6 4 4
0 0 2 4 5 5 4 4 3 3 3 3 4 4 4 4 3 3 3 4 3 3 3 3 3 3 3 2 2 4 6 8 9 10 10 10 9 8 8 7 6 6 6
0 0 1 3 4 4 3 3 3 3 3 4 5 6 6 5 4 3 4 5 5 4 4 3 3 3 2 1 2 4 7 8 8 9 9 9 8 8 8 9 9 10 9
0 0 0 1 2 3 3 3 3 4 4 5 6 6 6 5 3 3 5 6 7 7 7 6 4 3 2 1 1 4 6 8 8 8 8 8 8 9 9 11 12 12 12
0 0 0 0 1 1 3 3 4 5 6 6 6 6 6 4 2 2 4 7 9 9 9 8 6 3 2 1 1 1 3 6 7 8 8 8 9 10 10 11 12 13 14
0 0 0 0 0 1 3 4 5 7 7 7 7 6 5 3 1 1 2 5 8 9 9 8 6 4 3 2 1 1 2 2 4 7 9 10 10 11 11 11 12 13 14
0 0 1 1 1 1 2 4 5 7 8 7 6 5 3 2 0 0 1 3 6 7 7 7 6 5 4 3 2 2 3 2 2 3 6 8 9 10 11 11 12 13 13
0 0 1 1 1 1 2 3 4 5 5 5 4 3 3 2 1 0 1 2 3 4 4 5 5 5 4 2 3 3 4 4 2 1 2 4 5 6 7 10 11 11 11
0 0 1 1 0 1 2 3 3 3 3 2 1 2 3 3 1 0 0 1 1 1 2 3 2 2 2 1 2 3 4 5 5 3 2 2 3 3 4 7 10 10 9
0 0 1 1 1 2 3 3 3 3 3 2 2 2 3 3 1 0 0 0 0 0 1 1 0 0 0 0 1 2 3 3 4 5 4 4 3 3 4 6 7 8 7
0 0 1 2 2 2 3 4 3 3 3 2 2 2 2 2 1 0 0 0 0 0 0 0 0 0 0 0 0 1 1 1 2 3 3 3 2 2 3 4 5 5 6
0 0 1 1 2 2 3 3 2 2 2 1 1 1 1 1 2 1 1 0 0 0 0 0 0 0 0 0 0 0 0 0 0 1 1 1 1 1 2 3 3 4 4
0 0 0 0 1 1 1 1 1 1 2 1 0 0 1 1 2 2 1 1 1 1 0 0 0 0 0 0 0 0 0 0 0 0 0 0 0 1 1 2 3 3 3
0 0 0 0 0 0 0 0 0 1 1 1 0 0 1 1 1 1 1 1 1 1 0 0 0 0 0 0 0 0 0 0 0 0 0 0 0 0 1 2 3 3 3
0 0 0 0 0 0 0 0 0 0 0 0 0 0 1 1 0 0 0 0 1 1 0 0 0 0 0 0 0 0 0 0 0 0 0 0 0 1 1 3 3 3 3
0 0 0 0 0 0 0 0 0 0 0 0 0 0 0 0 0 0 0 0 0 0 0 0 0 0 0 0 0 0 0 0 1 1 1 1 1 2 3 3 3 3 3
0 0 0 0 0 0 0 0 0 0 0 0 0 0 0 0 0 0 0 0 0 0 0 0 0 1 1 2 1 1 1 1 2 2 2 2 2 3 3 3 3 3 2
0 0 0 0 0 0 0 0 0 0 0 0 0 0 0 0 0 0 0 0 0 0 0 1 1 2 2 2 2 2 2 2 2 1 1 1 2 3 3 3 2 1 1
0 0 0 0 0 0 0 0 0 0 0 0 0 0 0 0 0 0 0 0 0 0 1 2 3 3 2 2 2 1 1 1 1 1 1 2 3 3 3 2 1 0 0
0 0 0 0 0 0 0 0 0 0 0 0 0 0 0 0 0 0 0 0 0 1 2 3 3 2 1 0 0 0 1 1 2 2 3 3 3 2 2 1 1 0 0
0 0 0 0 0 0 0 0 0 0 0 0 0 0 0 0 0 0 0 1 1 2 3 3 2 1 0 0 0 1 2 3 3 3 3 3 2 1 0 0 0 0 0
0 0 0 0 0 0 0 0 0 0 0 0 0 0 0 0 0 0 1 2 2 2 2 1 1 0 0 0 0 2 3 3 3 2 2 1 1 0 0 0 0 0 0
0 0 0 0 0 0 0 0 0 0 0 0 0 0 0 0 0 1 2 3 2 1 1 0 0 0 0 0 0 1 2 2 1 1 1 0 0 0 0 0 0 0 0
0 0 0 0 0 0 0 0 0 0 0 0 0 0 0 0 0 1 2 2 1 0 0 0 0 0 0 0 0 0 1 1 0 0 0 0 0 0 0 0 0 0 0
0 0 0 0 0 0 0 0 0 0 0 0 0 0 0 0 1 1 1 1 0 0 0 0 0 0 0 0 0 0 0 0 0 0 0 0 0 0 0 0 0 0 0
Wind_Speed
2 2 2 1 1 2 2 2 1 1 1 1 1 2 3 3 3 4 4 4 5 4 4 5 5 5 4 4 4 5 5 5 6 5 4 4 4 6 4 6 7 7 6
2 2 2 1 1 2 2 2 2 1 1 1 2 2 2 2 3 4 5 5 5 5 5 5 5 4 5 5 5 5 5 5 6 7 5 5 5 6 6 6 6 6 6
2 2 2 2 2 2 2 2 2 1 1 1 2 2 2 2 3 3 4 4 5 5 5 5 5 5 5 4 5 5 5 5 6 7 7 4 5 5 5 6 6 5 6
2 2 2 2 2 2 1 1 1 1 1 2 2 2 3 2 2 3 4 4 4 5 5 6 6 5 5 5 5 6 6 6 6 6 6 5 4 4 5 5 5 4 4
2 2 2 2 2 2 1 2 2 2 2 2 2 2 3 2 2 3 4 4 4 5 5 5 5 4 4 5 5 5 5 5 5 5 5 5 4 3 4 4 4 4 4
2 3 3 2 2 2 2 2 2 2 2 3 3 3 3 2 3 3 5 4 4 4 4 4 5 5 5 6 5 6 6 6 6 5 5 5 5 5 4 5 4 4 4
2 3 3 3 3 3 2 2 2 2 3 3 3 3 3 3 2 3 5 5 4 3 3 4 4 3 4 5 5 7 7 8 8 7 7 7 6 5 5 6 5 5 5
3 3 3 3 3 3 3 3 3 3 3 3 3 3 3 2 2 3 5 6 4 3 3 4 3 3 3 5 5 6 6 6 7 7 7 7 6 5 5 6 6 6 6
3 3 3 4 3 3 4 4 3 3 3 3 3 3 3 2 2 4 6 4 3 4 4 3 3 3 2 4 5 6 6 6 6 6 6 5 5 5 5 6 6 6 6
4 4 3 3 4 4 4 4 3 3 4 4 3 3 4 3 2 3 5 5 3 3 3 2 1 2 2 3 5 5 6 5 5 5 6 7 7 6 7 7 7 6 6
4 4 3 3 4 3 3 3 3 3 4 4 4 3 3 3 2 2 3 4 4 4 3 2 1 1 1 3 4 4 5 6 6 5 5 5 4 4 5 5 5 6 6
3 4 4 4 4 3 3 4 3 4 4 4 4 4 2 2 2 1 2 4 6 5 4 3 2 0 2 3 3 4 5 6 4 3 3 4 4 4 3 4 4 5 5
3 3 4 4 4 4 4 4 3 3 4 4 4 4 3 2 1 2 3 4 5 4 3 3 3 4 4 4 4 5 5 4 3 3 3 3 3 3 3 2 3 4 6
3 4 4 3 4 3 3 4 4 4 4 5 4 4 4 3 3 3 2 2 3 4 3 3 5 7 6 4 3 3 3 2 3 3 3 3 3 3 3 3 3 3 4
4 4 4 3 3 3 3 3 4 4 5 5 6 5 5 4 4 6 5 5 5 4 4 3 2 2 2 2 2 2 1 1 2 2 3 3 3 3 3 2 3 3 3
4 3 3 3 3 3 3 2 1 2 2 2 3 5 3 3 3 4 4 5 6 5 4 3 2 3 3 3 2 2 1 2 2 3 3 3 3 3 3 2 2 3 3
4 4 4 4 4 4 4 4 3 2 2 2 2 2 3 3 4 5 6 6 6 4 3 3 3 3 3 3 2 2 2 2 2 3 3 3 3 3 3 2 2 2 3
5 4 4 4 4 4 4 4 4 4 3 2 2 3 4 4 4 6 6 5 3 2 2 3 3 3 3 3 3 3 3 2 2 2 3 3 3 3 3 2 2 2 2
5 4 4 4 5 4 4 4 4 4 4 3 2 1 4 5 6 6 5 3 3 3 3 3 3 3 3 3 3 3 3 2 2 2 2 2 2 3 3 3 2 2 3
5 4 4 5 5 4 4 4 4 4 4 4 3 3 2 3 3 2 2 3 3 3 3 3 3 3 3 3 3 3 3 2 3 3 2 2 2 3 3 3 3 3 3
4 3 4 5 5 4 4 4 4 4 4 4 3 3 6 5 4 4 4 4 4 4 4 4 4 3 3 3 3 3 3 2 2 2 2 2 2 3 3 2 3 3 3
5 4 4 5 4 4 4 4 5 4 4 5 3 2 4 5 4 4 4 4 4 3 4 4 4 3 3 3 3 3 2 2 2 3 3 3 3 3 2 2 3 3 3
5 5 5 4 4 4 5 5 5 4 4 4 4 4 3 3 3 3 4 3 3 3 3 3 3 3 3 3 3 3 3 3 3 3 3 3 3 3 2 3 3 3 3
5 5 5 4 4 4 4 4 4 4 4 4 4 4 4 3 3 4 3 3 3 3 3 3 3 4 5 4 2 2 2 3 4 3 4 4 4 3 3 3 3 3 3
5 5 5 4 4 4 4 4 4 4 4 4 4 4 4 4 3 3 3 3 3 2 3 3 3 3 4 4 3 2 2 3 4 5 4 3 3 3 3 3 2 2 2
5 5 5 4 4 4 4 4 4 4 4 4 4 4 4 4 3 3 2 3 3 2 3 3 3 4 5 4 3 3 1 1 3 5 5 3 3 3 3 2 3 3 3
Wind_Direction
5 9 16 13 4 348 354 1 359 342 316 282 277 276 278 271 264 259 263 251 242 241 242 238 241 249 250 256 252 248 248 250 259 265 259 255 243 252 239 243 235 231 218
18 18 18 14 10 351 355 353 352 336 301 281 279 280 287 281 270 260 261 255 248 243 240 238 238 236 236 247 253 254 254 256 256 262 262 256 248 246 245 250 245 235 240
10 17 13 359 358 353 355 359 356 343 309 290 288 289 298 293 281 275 267 259 255 251 246 240 239 236 240 248 253 255 256 253 254 257 258 255 252 247 246 247 249 248 250
355 357 6 357 352 352 353 344 326 320 304 300 299 296 291 278 279 280 272 262 259 253 249 247 245 241 243 247 249 250 252 256 254 256 258 255 251 244 245 247 245 238 250
332 337 354 346 350 358 351 344 329 316 309 311 306 301 293 280 304 301 288 273 266 258 250 250 249 243 255 259 265 264 260 258 259 259 260 260 257 254 254 255 253 251 246
323 334 342 343 352 356 354 347 335 324 314 305 301 298 292 313 16 325 295 281 277 273 270 262 250 225 224 228 244 260 262 258 262 265 266 264 262 256 257 257 257 255 254
323 327 339 347 352 347 336 340 340 325 314 308 309 309 312 358 359 317 302 286 282 282 275 275 273 254 239 245 233 233 239 245 252 262 268 268 266 262 262 260 261 268 272
325 330 331 333 339 335 332 339 334 322 316 311 312 314 314 342 328 294 289 271 283 279 274 273 273 274 267 266 258 253 250 245 244 247 260 267 271 271 259 258 259 254 254
329 330 333 332 331 321 324 333 329 319 312 304 304 307 305 312 297 282 281 274 273 272 270 272 273 272 303 274 254 255 254 249 229 234 250 261 275 271 264 256 251 252 253
325 323 326 326 320 310 313 319 324 309 304 305 313 316 313 314 315 293 285 278 283 277 265 254 277 302 313 286 262 262 262 262 255 236 232 234 240 234 227 245 256 258 261
323 319 318 320 313 306 307 303 306 298 304 305 308 303 304 310 327 319 293 292 299 296 296 289 316 134 273 279 276 279 282 280 267 252 238 237 236 236 231 231 249 261 263
326 323 323 322 313 316 305 292 291 293 291 292 294 297 299 295 320 315 266 272 299 296 299 307 333 150 255 262 264 292 292 280 266 258 253 252 250 249 244 239 237 249 261
322 321 320 322 318 313 306 300 289 282 292 307 307 308 310 305 254 209 225 241 262 278 302 309 285 255 253 240 233 248 259 263 273 273 273 278 277 273 263 247 237 234 240
311 311 308 312 314 317 310 308 314 317 312 311 314 317 320 324 327 323 298 262 239 254 280 257 230 236 241 257 252 228 247 283 290 288 292 290 277 264 252 250 245 239 241
305 307 307 310 308 302 303 325 325 336 336 319 325 325 326 332 354 352 334 331 327 325 310 287 291 290 282 272 267 264 256 246 258 279 285 283 277 270 265 262 263 270 264
292 298 301 304 305 294 294 292 342 298 334 327 313 314 333 346 338 332 315 305 296 293 289 290 300 303 306 308 302 289 274 269 277 278 281 283 286 287 281 275 266 260 263
293 297 298 301 301 298 304 303 296 253 221 225 259 273 269 293 305 302 292 284 276 263 266 295 308 311 308 308 302 289 282 279 277 275 279 282 282 281 278 273 269 269 266
283 282 288 295 298 298 298 298 301 307 303 278 207 213 223 235 262 279 281 273 266 239 291 309 311 303 297 297 291 288 289 286 272 272 279 286 289 286 277 274 280 289 287
281 286 293 296 291 290 293 295 302 307 311 311 308 186 214 224 226 251 260 282 311 312 306 303 306 310 310 305 301 294 286 283 282 279 277 281 283 284 283 278 266 263 271
274 283 283 283 284 287 292 298 305 306 303 306 316 328 299 269 285 290 281 296 299 305 300 301 307 306 302 298 294 290 286 280 276 271 276 273 270 272 271 276 279 266 258
287 280 253 267 277 287 294 301 304 303 302 302 314 340 317 303 305 303 301 304 305 307 309 306 301 299 300 298 296 299 301 298 295 292 287 286 290 288 287 285 279 274 271
290 292 288 287 287 286 291 294 295 297 302 303 300 274 261 279 301 302 301 303 305 306 306 303 304 309 309 305 303 302 301 305 313 312 307 296 287 286 279 278 283 284 278
284 288 290 290 283 280 276 283 288 293 297 299 302 307 297 299 303 301 304 306 306 306 306 305 306 314 314 302 298 301 301 303 304 310 299 292 292 292 291 284 282 284 284
286 290 294 297 289 285 287 292 291 292 295 300 305 306 304 302 299 300 298 299 307 309 310 308 312 323 315 302 297 310 332 320 306 292 288 287 289 290 294 296 292 296 289
285 285 286 288 286 287 293 299 303 304 306 305 303 303 301 300 299 301 305 307 303 302 304 303 308 312 313 312 316 333 1 331 311 308 292 285 289 296 299 307 306 295 284
287 288 288 289 288 288 290 293 298 306 306 305 307 307 304 302 308 317 319 313 305 300 294 297 315 320 315 312 328 338 344 322 310 301 289 283 289 299 302 298 300 294 288